CUBEBUG-2 (LO-74)

Last updated on Thu Dec 18 2025 00:03:10 GMT+0000 (Coordinated Universal Time)

1 39440U 13066AA 25351.56788106 .00003439 00000+0 33426-3 0 9992 2 39440 97.8708 295.2332 0058016 269.4523 90.0047 14.92015584649893
UTC large
Height (km)
Speed (km/s)
/
Latitude / Longitude
Inclination (degrees)
Orbital Period (minutes)
Azimuth
Elevation
Range (km)
Doppler Factor

Next 0 passes for location: London (51.5072 / 0.1276)

Sorry there are no passes over London.